| time (UTC) | temp F | wind direction | speed MPH | gust MPH | rain 1hr in | rain 24hr in | rain mn in | humidity % | barometer mb |
| 20260507204827 | 69 | 212 | 3.0 | 7.0 | 0.00 | 0.00 | 0.00 | 59 | 1019.4 |
| 20260507203349 | 68 | 236 | 3.0 | 7.0 | 0.00 | 0.00 | 0.00 | 62 | 1019.6 |
| 20260507201817 | 67 | 10 | 4.0 | 8.0 | 0.00 | 0.00 | 0.00 | 62 | 1019.7 |
| 20260507200342 | 66 | 39 | 2.0 | 7.0 | 0.00 | 0.00 | 0.00 | 59 | 1019.8 |
| 20260507194824 | 65 | 328 | 4.0 | 10.0 | 0.00 | 0.00 | 0.00 | 66 | 1020.1 |
| 20260507193332 | 64 | 43 | 2.0 | 7.0 | 0.00 | 0.00 | 0.00 | 67 | 1020.1 |
| 20260507191834 | 63 | 317 | 1.0 | 4.0 | 0.00 | 0.00 | 0.00 | 70 | 1020.2 |
| 20260507190347 | 62 | 215 | 2.0 | 5.0 | 0.00 | 0.00 | 0.00 | 65 | 1020.4 |
| 20260507184832 | 60 | 227 | 1.0 | 4.0 | 0.00 | 0.00 | 0.00 | 72 | 1020.5 |
| 20260507183347 | 60 | 327 | 3.0 | 6.0 | 0.00 | 0.00 | 0.00 | 70 | 1020.5 |
| 20260507181853 | 60 | 310 | 1.0 | 7.0 | 0.00 | 0.00 | 0.00 | 73 | 1020.7 |
| 20260507180353 | 59 | 346 | 3.0 | 8.0 | 0.00 | 0.00 | 0.00 | 76 | 1020.8 |
| 20260507174823 | 58 | 354 | 3.0 | 7.0 | 0.00 | 0.00 | 0.00 | 75 | 1020.9 |
| 20260507173333 | 58 | 327 | 5.0 | 8.0 | 0.00 | 0.00 | 0.00 | 73 | 1020.9 |
| 20260507171842 | 58 | 337 | 3.0 | 9.0 | 0.00 | 0.00 | 0.00 | 75 | 1020.9 |
| 20260507170321 | 57 | 326 | 4.0 | 8.0 | 0.00 | 0.00 | 0.00 | 78 | 1020.9 |
| 20260507164826 | 56 | 324 | 2.0 | 5.0 | 0.00 | 0.00 | 0.00 | 79 | 1020.9 |
| 20260507163352 | 55 | 320 | 4.0 | 8.0 | 0.00 | 0.00 | 0.00 | 79 | 1020.9 |
| 20260507161840 | 55 | 353 | 4.0 | 10.0 | 0.00 | 0.00 | 0.00 | 80 | 1021.0 |
| 20260507160355 | 55 | 358 | 4.0 | 8.0 | 0.00 | 0.00 | 0.00 | 80 | 1020.9 |
| 20260507154838 | 54 | 341 | 5.0 | 8.0 | 0.00 | 0.00 | 0.00 | 81 | 1020.9 |
| 20260507153324 | 53 | 318 | 2.0 | 7.0 | 0.00 | 0.00 | 0.00 | 83 | 1021.0 |
| 20260507151814 | 53 | 328 | 5.0 | 9.0 | 0.00 | 0.00 | 0.00 | 84 | 1021.1 |
| 20260507150326 | 53 | 311 | 1.0 | 6.0 | 0.00 | 0.00 | 0.00 | 85 | 1021.1 |
| 20260507144814 | 53 | 322 | 3.0 | 6.0 | 0.00 | 0.00 | 0.00 | 87 | 1021.1 |
| 20260507143345 | 52 | 319 | 3.0 | 5.0 | 0.00 | 0.00 | 0.00 | 87 | 1021.0 |
| 20260507141830 | 52 | 319 | 3.0 | 5.0 | 0.00 | 0.00 | 0.00 | 89 | 1020.9 |
| 20260507140321 | 52 | 320 | 1.0 | 3.0 | 0.00 | 0.00 | 0.00 | 89 | 1020.7 |
| 20260507134835 | 52 | 320 | 0.0 | 3.0 | 0.00 | 0.00 | 0.00 | 89 | 1020.6 |
| 20260507133344 | 52 | 320 | 0.0 | 2.0 | 0.00 | 0.00 | 0.00 | 89 | 1020.5 |
| 20260507131830 | 52 | 320 | 2.0 | 3.0 | 0.00 | 0.00 | 0.00 | 89 | 1020.6 |
| 20260507130319 | 52 | 320 | 0.0 | 2.0 | 0.00 | 0.00 | 0.00 | 89 | 1020.8 |
| 20260507124826 | 52 | 320 | 1.0 | 3.0 | 0.00 | 0.00 | 0.00 | 89 | 1020.7 |
| 20260507123354 | 52 | 320 | 0.0 | 3.0 | 0.00 | 0.00 | 0.00 | 89 | 1020.8 |
| 20260507121821 | 52 | 320 | 2.0 | 3.0 | 0.00 | 0.00 | 0.00 | 88 | 1020.8 |
| 20260507120350 | 52 | 320 | 1.0 | 3.0 | 0.00 | 0.00 | 0.00 | 88 | 1020.9 |
| 20260507114857 | 52 | 321 | 2.0 | 4.0 | 0.00 | 0.00 | 0.00 | 88 | 1021.0 |
| 20260507113341 | 52 | 315 | 2.0 | 3.0 | 0.00 | 0.00 | 0.00 | 88 | 1021.1 |
| 20260507111835 | 52 | 311 | 1.0 | 4.0 | 0.00 | 0.00 | 0.00 | 88 | 1021.2 |
| 20260507110356 | 52 | 288 | 1.0 | 4.0 | 0.00 | 0.00 | 0.00 | 88 | 1021.1 |
| 20260507104823 | 52 | 261 | 0.0 | 3.0 | 0.00 | 0.00 | 0.00 | 88 | 1021.1 |
| 20260507103331 | 52 | 242 | 0.0 | 1.0 | 0.00 | 0.00 | 0.00 | 88 | 1021.3 |
| 20260507101839 | 52 | 242 | 1.0 | 5.0 | 0.00 | 0.00 | 0.00 | 87 | 1021.3 |
| 20260507100330 | 52 | 250 | 2.0 | 7.0 | 0.00 | 0.00 | 0.00 | 87 | 1021.4 |
| 20260507094820 | 52 | 231 | 4.0 | 7.0 | 0.00 | 0.00 | 0.00 | 87 | 1021.4 |
| 20260507093329 | 53 | 244 | 2.0 | 7.0 | 0.00 | 0.00 | 0.00 | 86 | 1021.6 |
| 20260507091837 | 53 | 238 | 1.0 | 5.0 | 0.00 | 0.00 | 0.00 | 86 | 1021.6 |
| 20260507090348 | 53 | 249 | 2.0 | 4.0 | 0.00 | 0.00 | 0.00 | 86 | 1021.9 |
| 20260507084858 | 53 | 262 | 2.0 | 5.0 | 0.00 | 0.00 | 0.00 | 87 | 1021.9 |
| 20260507083324 | 53 | 238 | 0.0 | 3.0 | 0.00 | 0.00 | 0.00 | 87 | 1021.8 |
| 20260507081833 | 53 | 230 | 3.0 | 5.0 | 0.00 | 0.00 | 0.00 | 87 | 1021.7 |
| 20260507080322 | 53 | 238 | 2.0 | 8.0 | 0.00 | 0.00 | 0.00 | 87 | 1021.7 |
| 20260507074829 | 53 | 239 | 5.0 | 9.0 | 0.00 | 0.00 | 0.00 | 87 | 1021.7 |
| 20260507073335 | 53 | 249 | 7.0 | 10.0 | 0.00 | 0.00 | 0.00 | 87 | 1021.7 |
| 20260507071825 | 53 | 239 | 6.0 | 10.0 | 0.00 | 0.00 | 0.00 | 86 | 1021.7 |
| 20260507070317 | 53 | 235 | 5.0 | 9.0 | 0.00 | 0.00 | 0.00 | 86 | 1021.6 |
| 20260507064826 | 53 | 214 | 6.0 | 11.0 | 0.00 | 0.00 | 0.00 | 86 | 1021.6 |
| 20260507063334 | 53 | 238 | 4.0 | 10.0 | 0.00 | 0.00 | 0.00 | 87 | 1021.6 |
| 20260507060332 | 52 | 230 | 7.0 | 12.0 | 0.00 | 0.00 | 0.00 | 87 | 1021.7 |
| 20260507054835 | 52 | 234 | 7.0 | 12.0 | 0.00 | 0.00 | 0.00 | 87 | 1021.5 |
| 20260507053345 | 52 | 237 | 9.0 | 16.0 | 0.00 | 0.00 | 0.00 | 86 | 1021.5 |
| 20260507051835 | 52 | 229 | 11.0 | 19.0 | 0.00 | 0.00 | 0.00 | 86 | 1021.3 |
| 20260507050323 | 52 | 247 | 10.0 | 19.0 | 0.00 | 0.00 | 0.00 | 85 | 1021.5 |
| 20260507044851 | 52 | 266 | 13.0 | 19.0 | 0.00 | 0.00 | 0.00 | 85 | 1021.3 |
| 20260507043338 | 52 | 237 | 11.0 | 22.0 | 0.00 | 0.00 | 0.00 | 84 | 1021.3 |
| 20260507041823 | 53 | 258 | 11.0 | 17.0 | 0.00 | 0.00 | 0.00 | 84 | 1021.1 |
| 20260507040326 | 53 | 235 | 11.0 | 19.0 | 0.00 | 0.00 | 0.00 | 84 | 1020.9 |
| 20260507034815 | 53 | 223 | 11.0 | 18.0 | 0.00 | 0.00 | 0.00 | 84 | 1020.8 |
| 20260507033347 | 54 | 244 | 11.0 | 19.0 | 0.00 | 0.00 | 0.00 | 83 | 1020.7 |
| 20260507031854 | 54 | 211 | 11.0 | 16.0 | 0.00 | 0.00 | 0.00 | 83 | 1020.6 |
| 20260507030323 | 55 | 220 | 8.0 | 14.0 | 0.00 | 0.00 | 0.00 | 81 | 1020.5 |
| 20260507024827 | 56 | 221 | 6.0 | 14.0 | 0.00 | 0.00 | 0.00 | 80 | 1020.5 |
| 20260507023358 | 57 | 227 | 9.0 | 15.0 | 0.00 | 0.00 | 0.00 | 78 | 1020.4 |
| 20260507021823 | 59 | 242 | 7.0 | 15.0 | 0.00 | 0.00 | 0.00 | 76 | 1020.4 |
| 20260507020331 | 60 | 221 | 9.0 | 17.0 | 0.00 | 0.00 | 0.00 | 74 | 1020.5 |
| 20260507014814 | 61 | 242 | 8.0 | 18.0 | 0.00 | 0.00 | 0.00 | 72 | 1020.6 |
| 20260507013349 | 63 | 244 | 8.0 | 15.0 | 0.00 | 0.00 | 0.00 | 71 | 1020.6 |
| 20260507011829 | 63 | 212 | 7.0 | 13.0 | 0.00 | 0.00 | 0.00 | 71 | 1020.5 |
| 20260507010344 | 64 | 243 | 10.0 | 17.0 | 0.00 | 0.00 | 0.00 | 69 | 1020.7 |
| 20260507004832 | 66 | 231 | 9.0 | 15.0 | 0.00 | 0.00 | 0.00 | 68 | 1020.7 |
| 20260507003342 | 67 | 225 | 5.0 | 14.0 | 0.00 | 0.00 | 0.00 | 66 | 1020.6 |
| 20260507001851 | 67 | 252 | 7.0 | 16.0 | 0.00 | 0.00 | 0.00 | 65 | 1020.6 |
| 20260507000338 | 68 | 238 | 6.0 | 12.0 | 0.00 | 0.00 | 0.00 | 64 | 1020.6 |
| 20260506234846 | 69 | 239 | 7.0 | 15.0 | 0.00 | 0.00 | 0.00 | 64 | 1020.6 |
| 20260506233350 | 70 | 253 | 5.0 | 11.0 | 0.00 | 0.00 | 0.00 | 62 | 1020.5 |
| 20260506231836 | 72 | 227 | 5.0 | 11.0 | 0.00 | 0.00 | 0.00 | 62 | 1020.6 |
| 20260506230327 | 72 | 209 | 6.0 | 12.0 | 0.00 | 0.00 | 0.00 | 62 | 1020.5 |
| 20260506224838 | 73 | 225 | 5.0 | 12.0 | 0.00 | 0.00 | 0.00 | 63 | 1020.7 |
| 20260506223327 | 73 | 214 | 5.0 | 8.0 | 0.00 | 0.00 | 0.00 | 65 | 1020.8 |
| 20260506221830 | 72 | 202 | 4.0 | 9.0 | 0.00 | 0.00 | 0.00 | 62 | 1020.9 |
| 20260506220333 | 72 | 233 | 3.0 | 8.0 | 0.00 | 0.00 | 0.00 | 65 | 1020.8 |
| 20260506214837 | 71 | 216 | 5.0 | 10.0 | 0.00 | 0.00 | 0.00 | 67 | 1020.9 |
| 20260506213322 | 70 | 222 | 4.0 | 9.0 | 0.00 | 0.00 | 0.00 | 66 | 1021.0 |
| 20260506211827 | 69 | 117 | 3.0 | 7.0 | 0.00 | 0.00 | 0.00 | 67 | 1020.9 |
| 20260506210331 | 68 | 192 | 1.0 | 8.0 | 0.00 | 0.00 | 0.00 | 72 | 1021.1 |